GW1062 Weather Reports


Display with metric or nautical units.
time (UTC)temp
F
wind
direction
speed
MPH
gust
MPH
rain 1hr
in
rain 24hr
in
rain mn
in
humidity
%
barometer
mb
20260831060106 71 2 2.0 5.0 0.00 0.13 0.00 96 971.9
20260831054548 72 1 2.0 5.0 0.00 0.13 0.00 97 971.9
20260831053045 72 1 3.0 5.0 0.00 0.13 0.00 97 971.9
20260831051552 71 1 2.0 4.0 0.00 0.13 0.00 97 971.9
20260831050038 71 1 1.0 4.0 0.00 0.13 0.00 97 971.9
20260831044540 72 1 1.0 3.0 0.00 0.13 0.13 97 971.9
20260831043040 71 1 1.0 3.0 0.00 0.13 0.13 98 971.9
20260831041536 71 1 0.0 1.0 0.00 0.13 0.13 97 971.9
20260831040045 71 1 0.0 0.0 0.00 0.13 0.13 97 972.0
20260831034534 71 1 0.0 0.0 0.00 0.13 0.13 97 972.0
20260831033034 72 1 0.0 0.0 0.00 0.13 0.13 97 972.3
20260831031534 72 1 0.0 0.0 0.00 0.13 0.13 97 972.3
20260831030035 72 1 0.0 0.0 0.00 0.13 0.13 96 972.3
20260831024532 73 1 0.0 3.0 0.00 0.13 0.13 96 972.4
20260831023039 73 1 1.0 4.0 0.00 0.13 0.13 96 972.5
20260831021548 74 360 1.0 5.0 0.00 0.13 0.13 95 972.6
20260831020031 74 10 2.0 4.0 0.00 0.13 0.13 95 972.5
20260831014530 74 10 1.0 5.0 0.00 0.13 0.13 95 972.4
20260831013029 74 9 0.0 3.0 0.00 0.13 0.13 94 972.3
20260831011528 74 10 1.0 3.0 0.00 0.13 0.13 94 972.2
20260831010046 74 10 1.0 4.0 0.00 0.13 0.13 93 972.2
20260831004528 75 1 0.0 2.0 0.00 0.13 0.13 92 972.1
20260831003027 75 1 0.0 2.0 0.00 0.13 0.13 92 972.3
20260831001544 76 1 0.0 1.0 0.00 0.13 0.13 90 972.3
20260831000027 76 2 3.0 6.0 0.00 0.13 0.13 89 972.0
20260830234526 76 2 3.0 8.0 0.00 0.13 0.13 89 971.9
20260830233025 76 2 3.0 7.0 0.00 0.13 0.13 88 972.0
20260830231529 76 2 3.0 7.0 0.00 0.13 0.13 88 972.1
20260830230024 76 2 2.0 8.0 0.00 0.13 0.13 88 972.1
20260830224523 76 3 2.0 7.0 0.00 0.13 0.13 89 971.8
20260830223024 76 3 4.0 9.0 0.00 0.13 0.13 90 971.7
20260830221522 76 2 4.0 9.0 0.00 0.13 0.13 90 972.0
20260830220025 76 1 4.0 10.0 0.00 0.13 0.13 90 972.0
20260830214520 76 2 5.0 12.0 0.00 0.13 0.13 89 971.9
20260830213024 77 3 6.0 11.0 0.00 0.13 0.13 91 972.0
20260830211524 77 2 3.0 9.0 0.00 0.13 0.13 92 972.0
20260830210019 76 1 2.0 7.0 0.00 0.13 0.13 93 972.2
20260830204519 77 1 3.0 8.0 0.00 0.13 0.13 92 971.8
20260830203018 77 2 3.0 11.0 0.00 0.13 0.13 89 972.7
20260830201517 77 2 2.0 6.0 0.00 0.13 0.13 91 972.4
20260830200016 76 1 4.0 7.0 0.00 0.13 0.13 91 972.4
20260830194515 76 2 5.0 12.0 0.01 0.13 0.13 90 972.4
20260830193015 75 1 4.0 8.0 0.01 0.13 0.13 89 972.2
20260830191515 75 2 3.0 9.0 0.01 0.13 0.13 86 972.2
20260830190019 76 2 3.0 7.0 0.01 0.13 0.13 87 972.4
20260830184514 74 1 2.0 6.0 0.01 0.12 0.12 90 972.3
20260830183013 72 1 0.0 4.0 0.02 0.12 0.12 89 972.1
20260830181511 71 7 0.0 6.0 0.09 0.12 0.12 90 972.5
20260830180010 72 3 2.0 20.0 0.10 0.12 0.12 89 972.4
20260830174517 71 2 10.0 15.0 0.10 0.16 0.11 93 971.7
20260830173007 71 5 2.0 10.0 0.10 0.15 0.10 92 973.2
20260830171508 71 4 2.0 5.0 0.03 0.08 0.03 91 973.7
20260830170005 71 5 0.0 10.0 0.02 0.07 0.02 91 973.6
20260830164503 72 2 3.0 9.0 0.01 0.07 0.01 89 973.2
20260830163003 74 1 1.0 8.0 0.00 0.06 0.00 84 973.3
20260830161504 74 6 2.0 5.0 0.00 0.06 0.00 85 974.0
20260830154559 74 4 4.0 11.0 0.00 0.09 0.00 83 973.4
20260830153057 75 2 4.0 9.0 0.00 0.09 0.00 81 972.3
20260830151555 77 6 2.0 13.0 0.00 0.09 0.00 80 972.5
20260830150055 78 2 6.0 13.0 0.00 0.09 0.00 77 971.7
20260830144554 79 6 2.0 7.0 0.00 0.20 0.00 73 972.1
20260830143058 79 5 5.0 12.0 0.00 0.20 0.00 72 972.1
20260830141553 79 6 3.0 8.0 0.00 0.20 0.00 73 972.0
20260830134554 79 5 4.0 12.0 0.00 0.44 0.00 71 971.8
20260830133047 78 6 3.0 9.0 0.00 0.44 0.00 74 971.7
20260830131604 76 6 1.0 5.0 0.00 0.44 0.00 75 971.5
20260830130040 75 3 1.0 4.0 0.00 0.44 0.00 78 971.7
20260830124535 74 1 1.0 7.0 0.00 0.47 0.00 80 971.5
20260830123032 73 2 2.0 5.0 0.00 0.47 0.00 83 971.6
20260830121530 71 1 1.0 6.0 0.00 0.47 0.00 85 971.7
20260830120029 71 3 1.0 5.0 0.00 0.47 0.00 86 971.6
20260830114528 71 2 1.0 6.0 0.00 0.47 0.00 85 971.8
20260830113029 71 2 2.0 9.0 0.00 0.47 0.00 86 971.5
20260830111527 71 3 3.0 8.0 0.00 0.47 0.00 86 971.4
20260830110026 71 1 4.0 12.0 0.00 0.47 0.00 86 971.4
20260830104525 71 3 3.0 9.0 0.00 0.47 0.00 87 971.4
20260830103025 71 2 4.0 10.0 0.00 0.47 0.00 87 971.4
20260830101523 71 3 4.0 10.0 0.00 0.47 0.00 87 971.6
20260830100023 71 3 2.0 8.0 0.00 0.47 0.00 87 971.5
20260830094521 71 2 5.0 11.0 0.00 0.47 0.00 88 971.5
20260830093020 71 3 3.0 11.0 0.00 0.47 0.00 88 971.5
20260830091525 71 3 5.0 10.0 0.00 0.47 0.00 88 971.6
20260830090019 71 2 5.0 12.0 0.00 0.47 0.00 88 971.7
20260830084515 71 2 2.0 8.0 0.00 0.47 0.00 90 971.7
20260830083013 70 2 2.0 8.0 0.00 0.47 0.00 91 971.7
20260830081515 70 3 2.0 6.0 0.00 0.47 0.00 92 971.8
20260830080011 70 2 1.0 5.0 0.00 0.47 0.00 92 971.7
20260830074519 70 2 2.0 5.0 0.00 0.47 0.00 92 971.8
20260830073008 70 2 2.0 6.0 0.00 0.47 0.00 92 971.9
20260830071507 70 2 2.0 6.0 0.00 0.47 0.00 93 972.0
20260830070006 70 2 2.0 5.0 0.00 0.47 0.00 93 972.0
20260830064505 70 2 1.0 6.0 0.00 0.47 0.00 94 972.0
20260830063004 70 2 2.0 6.0 0.00 0.47 0.00 94 972.1
20260830061505 70 1 2.0 6.0 0.00 0.47 0.00 95 972.2